[[{"header":{"parameterUnit":"m.s-1","parameterCategory":1,"la1":30.2991,"la2":30.254,"lo1":-89.0895,"lo2":-89.0444,"dy":0.0017,"dx":0.0017,"nx":28,"ny":28,"refTime":"2023-11-02T03:00:00:Z","depth":0,"parameterNumber":2,"parameterNumberName":"U-component_of_WINDS"},"data":[0,0,0,0,0,0,0,0,0,0,0,0,0,0,0,0,0,0,0,0,0,0,0,0,0,0,0,0,0,0,0,0,0,0,0,0,0,0,0,0,0,0,0,0,0,0,0,0,0,0,0,0,0,0,0,0,0,0,-3.7312,-3.7313,0,-3.7353,-3.7353,-3.7354,-3.7245,-3.7242,-3.7239,-3.7236,-3.7277,-3.7281,-3.7285,0,0,0,0,0,0,0,0,0,0,0,0,0,-3.7141,-3.7145,-3.7312,-3.7313,-3.7313,-3.7353,-3.7353,-3.7354,-3.7246,-3.7242,-3.7238,-3.7234,-3.7275,-3.728,-3.7285,0,0,0,0,0,0,0,0,0,0,0,0,0,-3.7202,-3.7146,-3.7312,-3.7264,-3.7261,-3.7353,-3.7353,-3.7354,-3.7247,-3.7242,-3.7237,-3.7232,-3.7274,-3.728,-3.7286,-3.7426,0,0,-3.7305,-3.7308,0,0,0,0,0,0,0,0,-3.7199,-3.7209,-3.7271,-3.7268,-3.7264,-3.7289,-3.7308,-3.7378,-3.7248,-3.7252,-3.7235,-3.723,-3.7285,-3.729,-3.7308,-3.7428,-3.743,-3.7306,-3.731,-3.7312,-3.7314,0,0,0,0,0,0,0,-3.7195,-3.7206,-3.7328,-3.7272,-3.7268,-3.7241,-3.7244,-3.7321,-3.7296,-3.7251,-3.7244,-3.725,-3.7282,-3.7303,-3.7309,-3.743,-3.7306,-3.7311,-3.7315,-3.7318,-3.7666,-3.7671,0,0,0,0,0,0,-3.7197,-3.7203,-3.7327,-3.7329,-3.7218,-3.7248,-3.7251,-3.7286,-3.7295,-3.7292,-3.7254,-3.7245,-3.7294,-3.7301,-3.731,-3.7473,-3.7312,-3.7318,-3.7322,-3.766,-3.7667,-3.7673,0,0,0,0,0,0,-3.7194,-3.7209,-3.7325,-3.7264,-3.7277,-3.7256,-3.7296,-3.7289,-3.731,-3.7297,-3.7292,-3.728,-3.7291,-3.7301,-3.7398,-3.7473,-3.7321,-3.7327,-3.7654,-3.7662,-3.767,-3.7803,0,0,0,0,0,0,-3.7189,-3.7208,-3.7262,-3.7266,-3.7281,-3.7413,-3.7301,-3.7294,-3.7321,-3.7309,-3.732,-3.7317,-3.7287,-3.7389,-3.7404,-3.7479,-3.7332,-3.7647,-3.7658,-3.7667,-3.7791,-3.7814,-3.7834,0,0,0,0,0,-3.7183,-3.7298,-3.7265,-3.728,-3.7347,-3.7418,-3.7426,-3.739,-3.7328,-3.7381,-3.7373,-3.7317,-3.7463,-3.74,-3.7416,-3.7494,-3.7642,-3.7655,-3.7667,-3.7782,-3.781,-3.7833,0,0,0,0,0,0,-3.7302,-3.7297,-3.7261,-3.738,-3.74,-3.74,-3.7465,-3.7421,-3.7459,-3.7446,-3.7399,-3.7402,-3.7508,-3.7511,-3.7441,-3.763,-3.7542,-3.7558,-3.7624,-3.765,-3.7671,-3.7668,-3.7337,0,0,0,0,0,-3.7342,-3.7401,-3.7393,-3.7499,-3.7511,-3.7487,-3.7516,-3.7487,-3.7505,-3.7513,-3.7512,-3.7533,-3.7583,-3.7617,-3.7662,-3.7792,-3.7792,-3.7853,-3.7875,-3.7892,-3.7906,-3.7974,-3.8001,-3.7713,-3.7713,-3.7713,0,0,-3.7426,-3.743,-3.747,-3.7523,-3.7535,-3.7596,-3.7495,-3.7564,-3.7608,-3.7524,-3.7615,-3.7615,-3.7635,-3.7748,-3.7798,-3.7754,-3.7986,-3.7908,-3.7922,-3.7926,-3.7989,-3.8016,-3.804,-3.7721,-3.772,-3.7719,0,0,-3.7608,-3.7618,-3.7707,-3.7721,-3.774,-3.7724,-3.7745,-3.7751,-3.7748,-3.7839,-3.7777,-3.7829,-3.7917,-3.7933,-3.7953,-3.8142,-3.8091,-3.8158,-3.8269,-3.8335,-3.8358,-3.8377,-3.8444,-3.8468,-3.8172,-3.8173,-3.8173,0,-3.7709,-3.7798,-3.7758,-3.7831,-3.7856,-3.7782,-3.7871,-3.7887,-3.7921,-3.794,-3.789,-3.7998,-3.8006,-3.8122,-3.8168,-3.8187,-3.8209,-3.8156,-3.8358,-3.8377,-3.8395,-3.8458,-3.8483,-3.8181,-3.818,-3.8179,-3.8178,0,-3.7921,-3.7984,-3.8053,-3.8087,-3.812,-3.8201,-3.8172,-3.821,-3.8178,-3.8167,-3.826,-3.8267,-3.8312,-3.8338,-3.8307,-3.8449,-3.8421,-3.8366,-3.8276,-3.8431,-3.8489,-3.8513,-3.8192,-3.8189,-3.8187,-3.8185,0,0,-3.8179,-3.8189,-3.8215,-3.8229,-3.8246,-3.8293,-3.8371,-3.8415,-3.8448,-3.8474,-3.8537,-3.8614,-3.8562,-3.8585,-3.8555,-3.8614,-3.8761,-3.855,-3.855,-3.8588,-3.8917,-3.8958,-3.8987,-3.8729,-3.8733,-3.8737,-3.8915,0,-3.8357,-3.849,-3.8456,-3.8587,-3.8644,-3.8576,-3.8643,-3.866,-3.8652,-3.8699,-3.8689,-3.8743,-3.8672,-3.8685,-3.874,-3.8732,-3.8827,-3.8719,-3.8786,-3.8789,-3.8782,-3.9017,-3.906,-3.9229,-3.8938,-3.8942,-3.8944,0,-3.8584,-3.8618,-3.8756,-3.8762,-3.8784,-3.8846,-3.8883,-3.8929,-3.8947,-3.8937,-3.8962,-3.8921,-3.8997,-3.8908,-3.9011,-3.8939,-3.8964,-3.8965,-3.897,-3.8974,-3.8875,-3.9026,-3.9281,-3.9306,-3.898,-3.8977,-3.8974,0,-3.8756,-3.8837,-3.8929,-3.8944,-3.8954,-3.8998,-3.9004,-3.9017,-3.9046,-3.9079,-3.9097,-3.9139,-3.9162,-3.9195,-3.9166,-3.9104,-3.9273,-3.9182,-3.9266,-3.9267,-3.9304,-3.9302,-3.9566,-3.9323,-3.9323,-3.9322,-3.9322,0,-3.8959,-3.9046,-3.9007,-3.9064,-3.9158,-3.9118,-3.9213,-3.9211,-3.9223,-3.9278,-3.9222,-3.9275,-3.9234,-3.9283,-3.9261,-3.9349,-3.936,-3.9353,-3.9346,-3.9358,-3.9359,-3.9373,-3.936,-3.9329,-3.9328,-3.9326,-3.9325,0,-3.9167,-3.9145,-3.9241,-3.9242,-3.9245,-3.9315,-3.9315,-3.9368,-3.9355,-3.9425,-3.944,-3.942,-3.9475,-3.9449,-3.9507,-3.9492,-3.9606,-3.9584,-3.96,-3.9593,-3.9678,-3.967,-3.996,-3.9995,-3.9731,-3.9734,-3.9736,0,-3.9297,-3.9362,-3.9371,-3.9403,-3.9413,-3.9467,-3.9496,-3.9459,-3.9491,-3.9516,-3.9566,-3.9616,-3.9653,-3.9744,-3.9735,-3.9779,-3.9757,-3.9855,-3.9763,-3.9772,-3.9756,-3.9752,-3.9758,-3.9873,-3.9876,-3.9879,-3.9881,0,-3.953,-3.9516,-3.956,-3.96,-3.9636,-3.9666,-3.9691,-3.9721,-3.9685,-3.9724,-3.978,-3.9809,-3.9868,-3.9918,-3.9956,-3.9962,-3.9916,-3.991,-3.9932,-3.9943,-3.9949,-3.9946,-3.9649,-3.9903,-3.9901,-3.99,-3.9898,-3.9897,-3.9702,-3.9756,-3.9771,-3.9821,-3.9836,-3.9861,-3.991,-3.9903,-3.9949,-3.9993,-3.9969,-4.0034,-4.0049,-4.0096,-4.0108,-4.0158,-4.0119,-4.015,-4.0158,-4.0166,-4.0177,-3.9943,-4.0165,-4.0164,-4.0163,-4.0163,-4.0162,0,-3.9931,-3.9937,-3.9984,-4.002,-4.006,-4.0014,-4.0039,-4.0075,-4.0132,-4.0151,-4.0189,-4.0253,-4.0301,-4.0296,-4.034,-4.0381,-4.0361,-4.0394,-4.039,-4.0391,-4.021,-4.0186,-4.0409,-4.0409,-4.0409,-4.0409,-4.0409,-4.0409,-4.0055,-4.0143,-4.0131,-4.0226,-4.0231,-4.0293,-4.0312,-4.0334,-4.0349,-4.0422,-4.0462,-4.0458,-4.0467,-4.0511,-4.0553,-4.0551,-4.0569,-4.061,-4.0599,-4.0429,-4.0404,-4.0381,-4.0358,-4.0614,-4.0615,-4.0776,-4.0778,-4.0779]},{"header":{"parameterUnit":"m.s-1","parameterCategory":1,"la1":30.2991,"la2":30.254,"lo1":-89.0895,"lo2":-89.0444,"dy":0.0017,"dx":0.0017,"nx":28,"ny":28,"refTime":"2023-11-02T03:00:00:Z","depth":0,"parameterNumber":3,"parameterNumberName":"V-component_of_WINDS"},"data":[0,0,0,0,0,0,0,0,0,0,0,0,0,0,0,0,0,0,0,0,0,0,0,0,0,0,0,0,0,0,0,0,0,0,0,0,0,0,0,0,0,0,0,0,0,0,0,0,0,0,0,0,0,0,0,0,0,0,-1.9331,-1.9331,0,-1.9353,-1.9353,-1.9353,-1.9342,-1.9341,-1.9341,-1.934,-1.9361,-1.9362,-1.9364,0,0,0,0,0,0,0,0,0,0,0,0,0,-1.9278,-1.9279,-1.9331,-1.9331,-1.9332,-1.9353,-1.9353,-1.9353,-1.9342,-1.9341,-1.9341,-1.934,-1.9361,-1.9362,-1.9364,0,0,0,0,0,0,0,0,0,0,0,0,0,-1.9301,-1.928,-1.9331,-1.9329,-1.9329,-1.9353,-1.9353,-1.9353,-1.9342,-1.9341,-1.934,-1.934,-1.9361,-1.9362,-1.9364,-1.9391,0,0,-1.9369,-1.937,0,0,0,0,0,0,0,0,-1.9299,-1.9303,-1.9329,-1.9329,-1.9329,-1.9344,-1.9342,-1.9366,-1.9342,-1.9337,-1.934,-1.9339,-1.9356,-1.9358,-1.9364,-1.9392,-1.9393,-1.9369,-1.937,-1.9371,-1.9371,0,0,0,0,0,0,0,-1.9298,-1.9302,-1.934,-1.9329,-1.9329,-1.9326,-1.9328,-1.9347,-1.9351,-1.9337,-1.9337,-1.9339,-1.9356,-1.9362,-1.9364,-1.9393,-1.9369,-1.937,-1.9371,-1.9372,-1.9443,-1.9444,0,0,0,0,0,0,-1.9297,-1.93,-1.9339,-1.934,-1.9312,-1.9327,-1.933,-1.934,-1.9351,-1.9352,-1.934,-1.9339,-1.936,-1.9363,-1.9365,-1.9397,-1.9371,-1.9372,-1.9373,-1.9442,-1.9443,-1.9444,0,0,0,0,0,0,-1.9296,-1.93,-1.9338,-1.932,-1.9325,-1.9329,-1.9341,-1.9341,-1.9347,-1.9353,-1.9354,-1.9346,-1.936,-1.9363,-1.9384,-1.9397,-1.9373,-1.9374,-1.9441,-1.9442,-1.9444,-1.946,0,0,0,0,0,0,-1.9294,-1.93,-1.9311,-1.9321,-1.9326,-1.9358,-1.9341,-1.9342,-1.935,-1.9349,-1.9359,-1.9359,-1.9359,-1.9382,-1.9386,-1.9399,-1.9376,-1.944,-1.9442,-1.9443,-1.9459,-1.9462,-1.9465,0,0,0,0,0,-1.9292,-1.9315,-1.9312,-1.9316,-1.934,-1.9359,-1.9361,-1.9361,-1.9351,-1.9362,-1.9365,-1.9359,-1.9395,-1.9384,-1.9389,-1.9402,-1.9439,-1.9441,-1.9443,-1.9457,-1.9462,-1.9465,0,0,0,0,0,0,-1.9307,-1.9317,-1.9313,-1.9339,-1.9348,-1.9357,-1.937,-1.9366,-1.9377,-1.9375,-1.9374,-1.9376,-1.9398,-1.9402,-1.939,-1.9428,-1.9415,-1.9418,-1.9425,-1.9429,-1.9432,-1.943,-1.9377,0,0,0,0,0,-1.9314,-1.9329,-1.9336,-1.9359,-1.9363,-1.9366,-1.9374,-1.9373,-1.9382,-1.9385,-1.939,-1.9399,-1.9412,-1.9421,-1.9433,-1.9459,-1.9461,-1.9471,-1.9474,-1.9477,-1.9479,-1.9492,-1.9496,-1.9451,-1.9451,-1.9451,0,0,-1.9327,-1.9334,-1.9344,-1.9362,-1.9368,-1.9383,-1.9369,-1.9386,-1.9396,-1.9388,-1.9408,-1.9412,-1.9421,-1.9445,-1.9455,-1.9449,-1.9492,-1.9479,-1.9481,-1.9482,-1.9494,-1.9498,-1.9502,-1.9452,-1.9452,-1.9452,0,0,-1.9359,-1.9366,-1.9385,-1.9392,-1.9402,-1.9403,-1.9408,-1.9417,-1.9419,-1.9439,-1.9433,-1.9445,-1.9468,-1.9474,-1.9481,-1.9513,-1.9507,-1.9517,-1.9534,-1.9546,-1.9549,-1.9552,-1.9563,-1.9567,-1.9519,-1.9519,-1.9519,0,-1.9375,-1.9397,-1.9396,-1.9412,-1.942,-1.9412,-1.9431,-1.9437,-1.9451,-1.9456,-1.9449,-1.9476,-1.9482,-1.9506,-1.9514,-1.952,-1.9524,-1.9516,-1.9549,-1.9552,-1.9555,-1.9565,-1.9569,-1.9521,-1.952,-1.952,-1.952,0,-1.9415,-1.943,-1.9444,-1.9457,-1.9466,-1.9484,-1.9484,-1.9493,-1.949,-1.9492,-1.9512,-1.9519,-1.9532,-1.9537,-1.9535,-1.9561,-1.9556,-1.9549,-1.9536,-1.956,-1.957,-1.9573,-1.9522,-1.9522,-1.9521,-1.9521,0,0,-1.9458,-1.9468,-1.9473,-1.9478,-1.9488,-1.95,-1.9516,-1.9529,-1.9536,-1.9545,-1.9558,-1.9577,-1.957,-1.9577,-1.9575,-1.9586,-1.9609,-1.9577,-1.9577,-1.9582,-1.9637,-1.9642,-1.9646,-1.9606,-1.9606,-1.9607,-1.9635,0,-1.9489,-1.9518,-1.9517,-1.9544,-1.9557,-1.9549,-1.9563,-1.957,-1.9572,-1.9583,-1.9585,-1.9598,-1.9588,-1.9592,-1.9602,-1.9604,-1.962,-1.9602,-1.9617,-1.9618,-1.9615,-1.9651,-1.9657,-1.9683,-1.9639,-1.964,-1.964,0,-1.9531,-1.9541,-1.9569,-1.9575,-1.958,-1.9593,-1.9603,-1.9614,-1.9621,-1.9622,-1.9629,-1.9625,-1.9641,-1.9627,-1.9648,-1.9636,-1.9641,-1.9643,-1.9644,-1.9645,-1.963,-1.9652,-1.9692,-1.9696,-1.9646,-1.9646,-1.9645,0,-1.9558,-1.9578,-1.9597,-1.9602,-1.961,-1.9619,-1.9622,-1.9628,-1.9636,-1.9644,-1.9649,-1.966,-1.9665,-1.9673,-1.9672,-1.9662,-1.9693,-1.9679,-1.9693,-1.9693,-1.9699,-1.9699,-1.974,-1.9704,-1.9704,-1.9704,-1.9704,0,-1.9593,-1.9611,-1.9609,-1.9621,-1.9639,-1.9637,-1.9655,-1.9658,-1.9663,-1.9674,-1.9668,-1.9679,-1.9677,-1.9687,-1.9686,-1.9703,-1.9706,-1.9706,-1.9705,-1.9706,-1.9706,-1.971,-1.9708,-1.9705,-1.9705,-1.9704,-1.9704,0,-1.9627,-1.9627,-1.9647,-1.9652,-1.9654,-1.9667,-1.9671,-1.9682,-1.9682,-1.9697,-1.97,-1.9701,-1.9713,-1.9712,-1.9726,-1.9725,-1.9745,-1.9743,-1.9743,-1.9742,-1.9755,-1.9753,-1.9799,-1.9805,-1.9766,-1.9766,-1.9767,0,-1.9649,-1.9662,-1.9669,-1.9676,-1.9679,-1.9691,-1.9698,-1.9695,-1.9703,-1.9711,-1.972,-1.9731,-1.974,-1.9759,-1.976,-1.977,-1.9768,-1.9783,-1.9769,-1.9769,-1.9767,-1.9766,-1.9767,-1.9786,-1.9786,-1.9786,-1.9787,0,-1.9689,-1.9688,-1.9698,-1.9708,-1.9716,-1.9723,-1.973,-1.9736,-1.9734,-1.9742,-1.9754,-1.9761,-1.9774,-1.9785,-1.9794,-1.9797,-1.9791,-1.9791,-1.9794,-1.9795,-1.9794,-1.9794,-1.9749,-1.979,-1.979,-1.9789,-1.9789,-1.9789,-1.9717,-1.9728,-1.9733,-1.9744,-1.9749,-1.9755,-1.9764,-1.9766,-1.9775,-1.9786,-1.9784,-1.9796,-1.9802,-1.9813,-1.9817,-1.9826,-1.9821,-1.9826,-1.9827,-1.9829,-1.983,-1.9793,-1.9828,-1.9828,-1.9828,-1.9828,-1.9828,0,-1.9755,-1.9758,-1.9768,-1.9778,-1.9786,-1.9779,-1.9786,-1.9793,-1.9805,-1.981,-1.9818,-1.9831,-1.9841,-1.9843,-1.9852,-1.9859,-1.9857,-1.9862,-1.9861,-1.9862,-1.9835,-1.983,-1.9864,-1.9863,-1.9863,-1.9863,-1.9863,-1.9863,-1.9776,-1.9793,-1.9792,-1.9811,-1.9814,-1.9826,-1.983,-1.9835,-1.9839,-1.9854,-1.9862,-1.9863,-1.9866,-1.9875,-1.9884,-1.9884,-1.9888,-1.9893,-1.9892,-1.9867,-1.9864,-1.986,-1.9856,-1.9894,-1.9894,-1.9919,-1.9919,-1.9919]}]]